QPF
0.00 0.00 0.00 0.00 0.00 0.00 0.00 0.00 0.00 0.00 0.00 0.00 0.00 0.00 0.00 0.00 0.00 0.00 0.00 0.00 0.00 0.00 0.00 0.00 0.00 0.00 0.00 0.00 0.00 0.00 0.00 0.00 0.00 0.00 0.00 0.00 0.00 0.00 0.00 0.00 0.00 0.00 0.00 0.00
0.00 0.00 0.00 0.00 0.00 0.00 0.00 0.00 0.00 0.00 0.00 0.00 0.00 0.00 0.00 0.00 0.00 0.00 0.00 0.00 0.00 0.00 0.00 0.00 0.00 0.00 0.00 0.00 0.00 0.00 0.00 0.00 0.00 0.00 0.00 0.00 0.00 0.00 0.00 0.00 0.00 0.00 0.00 0.00
0.00 0.00 0.00 0.00 0.00 0.00 0.00 0.00 0.00 0.00 0.00 0.00 0.00 0.00 0.00 0.00 0.00 0.00 0.00 0.00 0.00 0.00 0.00 0.00 0.00 0.00 0.00 0.00 0.00 0.00 0.00 0.00 0.00 0.00 0.00 0.00 0.00 0.00 0.00 0.00 0.00 0.00 0.00 0.00
0.00 0.00 0.00 0.00 0.00 0.00 0.00 0.00 0.00 0.00 0.00 0.00 0.00 0.00 0.00 0.00 0.00 0.00 0.00 0.00 0.00 0.00 0.00 0.00 0.00 0.00 0.00 0.00 0.00 0.00 0.00 0.00 0.00 0.00 0.00 0.00 0.00 0.00 0.00 0.00 0.00 0.00 0.00 0.00
0.00 0.00 0.00 0.00 0.00 0.00 0.00 0.00 0.00 0.00 0.00 0.00 0.00 0.00 0.00 0.00 0.00 0.00 0.00 0.00 0.00 0.00 0.00 0.00 0.00 0.00 0.00 0.00 0.00 0.00 0.00 0.00 0.00 0.00 0.00 0.00 0.00 0.00 0.00 0.02 0.01 0.01 0.00 0.00
0.00 0.00 0.00 0.00 0.00 0.00 0.00 0.00 0.00 0.00 0.00 0.00 0.00 0.00 0.00 0.00 0.00 0.00 0.00 0.00 0.00 0.00 0.00 0.00 0.00 0.00 0.00 0.00 0.00 0.00 0.00 0.00 0.00 0.00 0.00 0.00 0.00 0.00 0.00 0.00 0.00 0.00 0.00 0.00
0.00 0.00 0.00 0.00 0.00 0.00 0.00 0.00 0.00 0.00 0.00 0.00 0.00 0.00 0.00 0.00 0.00 0.00 0.00 0.00 0.00 0.00 0.00 0.00 0.00 0.00 0.00 0.00 0.00 0.00 0.00 0.00 0.00 0.00 0.00 0.00 0.00 0.00 0.00 0.00 0.00 0.00 0.00 0.00
0.00 0.00 0.00 0.00 0.00 0.00 0.00 0.00 0.00 0.00 0.00 0.00 0.00 0.00 0.00 0.00 0.00 0.00 0.00 0.00 0.00 0.00 0.00 0.00 0.00 0.00 0.00 0.00 0.00 0.00 0.00 0.00 0.00 0.00 0.00 0.00 0.00 0.00 0.00 0.00 0.00 0.00 0.00 0.00
0.00 0.00 0.00 0.00 0.00 0.00 0.00 0.00 0.00 0.00 0.00 0.01 0.00 0.00 0.00 0.00 0.00 0.00 0.00 0.00 0.00 0.00 0.00 0.00 0.00 0.00 0.00 0.00 0.00 0.00 0.00 0.00 0.00 0.00 0.00 0.00 0.00 0.00 0.00 0.00 0.00 0.00 0.00 0.00
0.00 0.00 0.00 0.00 0.00 0.00 0.00 0.00 0.00 0.00 0.00 0.01 0.00 0.00 0.00 0.00 0.00 0.00 0.00 0.00 0.00 0.00 0.00 0.00 0.00 0.00 0.00 0.00 0.00 0.00 0.00 0.00 0.00 0.00 0.00 0.00 0.00 0.00 0.00 0.00 0.00 0.00 0.00 0.00
0.00 0.00 0.00 0.00 0.00 0.00 0.00 0.00 0.00 0.00 0.00 0.00 0.00 0.00 0.00 0.00 0.00 0.00 0.00 0.00 0.00 0.00 0.00 0.00 0.00 0.00 0.00 0.00 0.00 0.00 0.00 0.00 0.00 0.00 0.00 0.00 0.00 0.00 0.00 0.00 0.00 0.00 0.00 0.00
0.00 0.00 0.00 0.00 0.00 0.00 0.00 0.00 0.00 0.00 0.00 0.00 0.00 0.00 0.00 0.00 0.00 0.00 0.00 0.00 0.00 0.00 0.00 0.00 0.00 0.00 0.00 0.00 0.00 0.00 0.00 0.00 0.00 0.00 0.00 0.00 0.00 0.00 0.00 0.00 0.00 0.00 0.00 0.00
0.00 0.00 0.00 0.00 0.00 0.00 0.00 0.00 0.00 0.00 0.00 0.00 0.00 0.00 0.00 0.00 0.00 0.00 0.00 0.00 0.00 0.00 0.00 0.00 0.00 0.00 0.00 0.00 0.00 0.00 0.00 0.00 0.00 0.00 0.00 0.00 0.00 0.00 0.00 0.00 0.00 0.00 0.00 0.00
0.00 0.00 0.00 0.00 0.00 0.00 0.00 0.00 0.00 0.00 0.00 0.00 0.00 0.00 0.00 0.00 0.00 0.00 0.00 0.00 0.00 0.00 0.00 0.00 0.00 0.00 0.00 0.00 0.00 0.00 0.00 0.00 0.00 0.00 0.00 0.00 0.00 0.00 0.00 0.00 0.00 0.00 0.00 0.00
0.00 0.00 0.00 0.00 0.00 0.00 0.00 0.00 0.00 0.00 0.00 0.00 0.00 0.00 0.00 0.00 0.00 0.00 0.00 0.00 0.00 0.01 0.01 0.01 0.00 0.00 0.00 0.00 0.00 0.00 0.00 0.00 0.00 0.00 0.00 0.00 0.00 0.00 0.00 0.00 0.00 0.00 0.00 0.00
0.00 0.00 0.00 0.00 0.00 0.00 0.00 0.00 0.00 0.00 0.00 0.00 0.00 0.00 0.00 0.00 0.00 0.00 0.00 0.00 0.01 0.00 0.01 0.01 0.00 0.00 0.00 0.00 0.00 0.00 0.00 0.00 0.00 0.00 0.00 0.00 0.00 0.00 0.00 0.00 0.00 0.00 0.00 0.00
0.00 0.00 0.00 0.00 0.00 0.00 0.00 0.00 0.00 0.00 0.00 0.00 0.00 0.00 0.00 0.00 0.00 0.00 0.00 0.00 0.00 0.01 0.00 0.00 0.00 0.01 0.00 0.00 0.00 0.00 0.00 0.00 0.00 0.00 0.00 0.00 0.00 0.00 0.00 0.00 0.00 0.00 0.00 0.00
0.00 0.00 0.00 0.00 0.00 0.00 0.00 0.00 0.00 0.00 0.00 0.00 0.00 0.00 0.00 0.00 0.00 0.00 0.01 0.01 0.01 0.02 0.01 0.00 0.00 0.00 0.00 0.00 0.00 0.00 0.00 0.00 0.00 0.00 0.00 0.00 0.00 0.00 0.00 0.00 0.00 0.00 0.00 0.00
0.00 0.00 0.00 0.00 0.00 0.00 0.00 0.00 0.00 0.00 0.00 0.00 0.00 0.00 0.00 0.00 0.00 0.00 0.00 0.00 0.00 0.01 0.01 0.00 0.00 0.00 0.00 0.00 0.00 0.00 0.00 0.00 0.00 0.00 0.00 0.00 0.00 0.00 0.00 0.00 0.00 0.00 0.00 0.00
0.00 0.00 0.00 0.00 0.01 0.00 0.00 0.00 0.00 0.00 0.00 0.00 0.00 0.00 0.00 0.00 0.00 0.00 0.00 0.00 0.00 0.00 0.00 0.00 0.01 0.01 0.00 0.00 0.00 0.00 0.00 0.00 0.00 0.00 0.00 0.00 0.00 0.00 0.00 0.00 0.00 0.00 0.00 0.00
0.00 0.00 0.01 0.01 0.01 0.00 0.00 0.00 0.00 0.00 0.00 0.00 0.01 0.01 0.00 0.01 0.01 0.00 0.00 0.00 0.00 0.00 0.00 0.00 0.00 0.00 0.00 0.00 0.00 0.00 0.00 0.00 0.00 0.00 0.00 0.00 0.00 0.00 0.00 0.00 0.00 0.00 0.00 0.00
0.00 0.00 0.00 0.00 0.01 0.00 0.00 0.00 0.01 0.00 0.00 0.00 0.01 0.01 0.00 0.01 0.02 0.03 0.02 0.00 0.00 0.00 0.00 0.00 0.00 0.00 0.00 0.00 0.00 0.00 0.00 0.00 0.00 0.00 0.00 0.00 0.00 0.00 0.00 0.00 0.00 0.00 0.00 0.00
0.01 0.00 0.00 0.01 0.00 0.00 0.00 0.00 0.00 0.00 0.00 0.00 0.00 0.00 0.02 0.03 0.03 0.02 0.01 0.00 0.00 0.00 0.00 0.00 0.00 0.00 0.00 0.00 0.00 0.00 0.00 0.00 0.00 0.00 0.00 0.00 0.00 0.00 0.00 0.00 0.00 0.00 0.00 0.00
0.00 0.00 0.01 0.01 0.00 0.00 0.00 0.00 0.00 0.00 0.00 0.00 0.00 0.00 0.01 0.03 0.04 0.04 0.01 0.00 0.00 0.00 0.00 0.00 0.00 0.00 0.00 0.00 0.00 0.00 0.00 0.00 0.00 0.00 0.00 0.00 0.00 0.00 0.00 0.00 0.00 0.00 0.00 0.00
0.00 0.00 0.00 0.00 0.00 0.00 0.00 0.00 0.00 0.00 0.00 0.00 0.00 0.01 0.02 0.01 0.01 0.00 0.00 0.00 0.00 0.00 0.00 0.00 0.00 0.00 0.00 0.00 0.00 0.00 0.00 0.00 0.00 0.00 0.00 0.00 0.00 0.00 0.00 0.00 0.00 0.00 0.00 0.00
0.00 0.00 0.00 0.00 0.00 0.00 0.00 0.00 0.00 0.00 0.00 0.00 0.01 0.02 0.02 0.02 0.01 0.01 0.02 0.01 0.00 0.00 0.00 0.00 0.00 0.00 0.00 0.00 0.00 0.00 0.00 0.00 0.00 0.00 0.00 0.00 0.00 0.00 0.00 0.00 0.00 0.00 0.00 0.00
MSLP
1010.03 1010.40 1010.33 1010.49 1010.40 1009.78 1009.34 1008.63 1007.65 1006.46 1005.62 1005.51 1005.43 1005.29 1004.59 1003.72 1003.39 1003.15 1002.87 1002.58 1002.12 1001.78 1001.12 1000.91 1000.98 1001.02 1001.09 1001.21 1001.91 1002.69 1003.72 1004.55 1005.56 1006.45 1007.08 1007.80 1007.91 1008.27 1008.67 1009.10 1009.32 1009.56 1009.88 1010.32
1010.48 1009.80 1009.81 1009.58 1009.38 1008.83 1008.41 1007.89 1007.27 1006.40 1005.40 1005.27 1005.17 1004.97 1004.26 1003.67 1002.75 1002.32 1002.15 1002.03 1001.60 1001.18 1001.04 1000.85 1000.87 1001.05 1001.17 1001.37 1001.44 1002.43 1003.18 1004.04 1004.58 1005.47 1006.13 1006.97 1007.47 1007.99 1008.26 1008.67 1008.89 1009.09 1009.38 1009.61
1009.91 1008.72 1008.82 1008.87 1008.40 1008.16 1007.78 1007.22 1006.93 1006.48 1005.95 1005.14 1005.11 1004.42 1004.17 1002.99 1001.80 1001.39 1000.40 1000.61 1000.72 1000.67 1001.00 1001.13 1001.27 1001.57 1001.72 1002.13 1002.31 1002.41 1002.79 1003.56 1004.17 1005.00 1006.09 1006.99 1007.67 1008.07 1008.51 1008.67 1008.72 1008.72 1008.73 1008.91
1009.08 1008.31 1008.09 1007.89 1007.21 1007.60 1007.04 1006.73 1006.41 1006.20 1006.19 1005.90 1005.46 1004.52 1004.05 1002.96 1001.51 1000.95 999.89 999.98 1000.04 1000.27 1000.67 1001.22 1001.59 1001.78 1001.98 1002.31 1002.54 1002.50 1003.09 1003.54 1003.80 1004.59 1005.47 1006.33 1006.92 1007.52 1007.50 1007.68 1007.89 1007.97 1008.04 1008.09
1008.29 1008.18 1007.94 1007.49 1006.77 1006.80 1006.28 1005.96 1005.93 1005.63 1005.87 1006.12 1005.13 1005.61 1003.23 1002.63 1001.64 1000.36 1000.40 999.93 999.76 1000.02 1000.34 1000.89 1001.68 1002.00 1002.20 1002.22 1002.32 1002.47 1002.59 1003.06 1003.72 1004.38 1004.91 1005.70 1006.43 1006.60 1006.88 1007.21 1007.40 1007.52 1007.45 1007.37
1008.91 1008.47 1008.04 1007.40 1006.64 1006.07 1005.89 1005.51 1005.54 1005.66 1005.97 1005.78 1004.76 1005.16 1003.56 1002.59 1001.50 1000.50 999.49 999.79 999.70 1000.00 1000.45 1000.66 1001.26 1002.04 1002.62 1002.47 1002.45 1002.46 1002.70 1002.75 1003.02 1003.85 1004.60 1005.37 1005.95 1006.39 1006.89 1007.13 1007.32 1007.37 1007.14 1006.96
1009.77 1008.94 1008.09 1007.23 1006.61 1006.12 1006.12 1006.39 1006.22 1006.30 1005.85 1005.13 1004.99 1004.67 1002.85 1001.58 1000.56 999.95 999.59 999.05 999.28 999.71 1000.63 1000.96 1001.48 1002.35 1002.92 1003.07 1002.91 1002.92 1002.93 1003.25 1003.17 1003.91 1004.58 1005.16 1005.64 1006.12 1006.51 1006.81 1006.98 1007.10 1007.06 1006.98
1010.25 1009.18 1008.07 1007.68 1006.65 1006.49 1006.41 1006.56 1006.64 1005.94 1006.10 1005.59 1005.00 1003.32 1001.69 1000.89 1000.06 999.53 998.33 997.94 998.72 999.46 999.88 1000.62 1001.33 1002.11 1002.71 1003.42 1003.43 1003.24 1003.28 1003.60 1003.78 1004.25 1004.85 1005.27 1005.67 1006.12 1006.53 1006.80 1006.88 1007.10 1007.09 1006.86
1012.74 1010.56 1008.90 1008.01 1007.19 1008.03 1007.66 1007.34 1007.45 1007.06 1006.41 1005.98 1004.68 1003.01 1001.74 1000.71 999.93 999.59 998.59 998.45 998.70 999.31 999.99 1000.43 1001.18 1001.72 1002.38 1003.42 1004.19 1004.03 1004.17 1004.35 1004.39 1004.85 1005.32 1005.84 1006.25 1006.66 1007.05 1007.16 1007.28 1007.48 1007.41 1007.20
1014.61 1013.33 1010.63 1008.99 1008.36 1007.27 1007.92 1008.03 1007.87 1007.61 1007.45 1007.30 1005.96 1003.46 1001.44 1001.30 1000.16 999.92 999.49 999.80 998.85 998.48 999.58 1000.29 1001.12 1002.03 1002.70 1003.47 1004.54 1004.74 1004.84 1005.20 1005.53 1005.77 1006.07 1006.43 1006.73 1007.10 1007.42 1007.55 1007.78 1007.83 1007.88 1007.87
1014.94 1014.83 1011.94 1010.85 1009.36 1008.70 1007.93 1007.97 1009.50 1009.63 1009.03 1009.03 1008.03 1006.03 1002.84 1002.14 1000.84 1000.85 1000.10 999.40 999.46 998.60 999.23 1000.27 1001.24 1001.90 1002.74 1003.52 1004.77 1005.40 1005.54 1005.97 1006.33 1006.54 1006.78 1007.04 1007.45 1007.69 1007.85 1008.16 1008.39 1008.50 1008.38 1008.36
1015.29 1015.34 1014.22 1012.49 1010.49 1009.99 1009.21 1009.23 1010.29 1011.07 1011.04 1010.69 1009.92 1007.54 1005.01 1003.54 1002.84 1001.66 1001.32 999.92 999.42 999.29 999.56 1000.27 1001.07 1001.69 1002.96 1003.71 1005.10 1006.22 1006.59 1006.98 1007.28 1007.55 1007.70 1007.99 1008.24 1008.47 1008.66 1008.84 1008.95 1008.89 1008.87 1008.84
1015.88 1016.02 1015.36 1012.40 1010.15 1010.24 1011.04 1011.03 1011.69 1011.32 1011.01 1011.21 1011.39 1007.90 1004.98 1004.60 1003.27 1002.30 1001.92 1000.78 1000.13 1000.12 1000.84 1001.01 1001.98 1002.60 1003.23 1004.33 1005.40 1006.43 1007.27 1007.70 1007.84 1008.03 1008.34 1008.70 1009.02 1009.14 1009.31 1009.37 1009.15 1009.25 1009.36 1009.32
1016.33 1016.45 1016.34 1015.32 1013.98 1014.02 1013.37 1012.22 1012.40 1013.07 1012.11 1010.78 1009.92 1007.49 1004.70 1004.03 1003.60 1001.81 1001.42 1001.09 1001.49 1001.29 1002.26 1000.65 1002.75 1003.76 1004.70 1005.14 1005.85 1006.72 1007.63 1008.23 1008.47 1008.70 1008.95 1009.14 1009.35 1009.55 1009.59 1009.59 1009.84 1010.10 1010.03 1009.82
1017.29 1016.78 1016.68 1015.61 1015.14 1015.14 1014.46 1013.22 1011.97 1012.63 1012.03 1011.68 1008.86 1008.65 1004.78 1003.50 1003.11 1002.34 1000.54 1000.90 1001.32 1000.51 1000.55 1003.47 1004.86 1005.53 1005.71 1006.05 1007.10 1007.77 1008.03 1008.43 1008.86 1009.11 1009.25 1009.48 1009.61 1009.66 1009.84 1010.08 1010.46 1010.88 1010.72 1010.85
1018.07 1017.83 1017.35 1016.01 1016.37 1015.70 1014.39 1013.11 1012.88 1012.27 1011.59 1010.55 1008.98 1006.80 1003.94 1003.24 1002.46 1001.61 1000.98 1000.09 1000.13 1000.93 1001.16 1001.57 1002.83 1003.88 1004.72 1005.91 1006.94 1008.07 1008.49 1008.93 1009.17 1009.34 1009.54 1009.83 1010.09 1010.31 1010.65 1010.86 1011.20 1011.50 1011.58 1011.68
1019.00 1018.81 1018.55 1017.15 1017.35 1016.59 1014.83 1013.22 1012.55 1011.57 1010.96 1010.44 1008.84 1006.18 1005.66 1004.23 1003.28 1001.94 1001.39 1000.79 1000.80 1001.44 1000.87 1001.14 1002.74 1003.91 1005.22 1006.40 1007.35 1008.53 1009.04 1009.36 1009.49 1009.76 1010.19 1010.64 1010.95 1011.18 1011.53 1011.82 1011.84 1012.30 1012.48 1012.47
1018.42 1018.82 1019.07 1018.40 1018.35 1016.61 1013.95 1013.35 1012.58 1012.06 1010.65 1010.25 1009.10 1007.74 1006.98 1005.93 1003.59 1001.75 1001.16 1001.16 1001.84 1002.04 1003.18 1003.10 1003.15 1004.13 1005.41 1006.82 1007.83 1008.68 1009.40 1009.76 1010.22 1010.67 1011.23 1011.55 1011.74 1012.02 1012.47 1012.59 1012.83 1012.83 1013.03 1013.11
1017.18 1017.67 1018.16 1018.34 1017.51 1015.55 1014.12 1013.22 1012.84 1012.17 1009.53 1010.46 1009.28 1008.62 1008.04 1007.14 1004.69 1001.81 1001.65 1000.71 1001.19 1003.50 1004.00 1005.21 1006.03 1006.36 1006.34 1007.06 1008.38 1009.17 1009.98 1010.63 1011.08 1011.62 1012.20 1012.56 1012.72 1013.12 1013.45 1013.45 1013.20 1013.21 1013.55 1013.62
1016.15 1016.32 1017.35 1017.82 1017.08 1015.65 1012.98 1012.46 1011.88 1011.48 1008.50 1009.85 1009.56 1009.05 1009.00 1008.90 1007.85 1005.27 1004.93 1002.48 1001.45 1002.84 1004.80 1006.19 1007.52 1007.56 1008.25 1008.18 1009.19 1009.98 1011.03 1011.68 1012.07 1012.74 1013.14 1013.40 1013.80 1013.98 1014.15 1014.20 1014.11 1014.19 1014.40 1014.37
1016.08 1016.01 1016.58 1016.79 1016.45 1014.97 1012.15 1012.09 1012.27 1011.90 1009.88 1009.88 1010.14 1010.00 1010.26 1010.19 1010.14 1007.60 1001.78 1002.89 1002.06 1003.35 1004.02 1005.15 1007.10 1008.92 1009.60 1009.80 1010.16 1011.60 1011.95 1012.82 1013.40 1013.50 1013.89 1014.37 1014.16 1014.71 1015.03 1015.11 1015.01 1015.21 1015.20 1015.17
1016.04 1016.03 1015.74 1015.60 1015.20 1013.66 1011.68 1011.39 1011.80 1010.64 1010.32 1010.32 1010.20 1010.20 1010.02 1009.72 1009.18 1007.57 1006.06 1003.05 1004.21 1005.15 1006.12 1007.10 1007.61 1008.78 1010.42 1011.16 1012.37 1012.67 1013.08 1013.71 1013.95 1014.38 1014.59 1014.85 1015.20 1015.42 1015.77 1015.95 1015.93 1015.87 1015.93 1015.99
1014.95 1014.75 1014.29 1014.12 1012.94 1011.78 1010.59 1011.17 1011.20 1010.44 1009.83 1009.43 1009.28 1009.26 1009.48 1009.33 1008.87 1007.81 1007.17 1003.70 1003.98 1006.44 1007.83 1008.57 1009.06 1010.59 1012.20 1012.73 1013.43 1013.33 1014.02 1014.63 1014.62 1014.93 1015.58 1015.84 1015.94 1016.10 1016.41 1016.56 1016.42 1016.29 1016.35 1016.56
1014.42 1013.79 1013.53 1013.06 1011.85 1011.32 1010.42 1010.50 1010.66 1010.12 1009.76 1009.34 1009.22 1008.85 1009.14 1009.24 1008.70 1007.64 1008.54 1005.57 1006.22 1007.80 1008.98 1010.12 1010.92 1011.33 1013.30 1013.94 1014.11 1014.38 1014.77 1015.06 1015.45 1016.16 1016.37 1016.59 1016.59 1016.91 1017.09 1017.08 1017.09 1017.03 1016.95 1016.93
1014.16 1013.74 1012.82 1012.27 1011.47 1010.51 1010.15 1009.87 1009.89 1009.44 1009.37 1009.18 1009.10 1009.12 1008.93 1009.00 1007.29 1008.38 1007.71 1006.09 1007.59 1008.88 1009.39 1010.59 1011.86 1013.05 1014.23 1015.08 1015.18 1015.52 1015.81 1015.74 1016.14 1016.59 1016.69 1016.88 1017.14 1017.32 1017.42 1017.48 1017.46 1017.53 1017.28 1017.05
1012.65 1012.03 1012.03 1010.68 1010.03 1009.92 1009.50 1008.92 1009.06 1008.87 1008.80 1008.94 1008.93 1008.66 1008.33 1007.64 1006.33 1007.57 1007.71 1007.93 1008.45 1009.62 1010.87 1011.43 1013.29 1014.35 1015.36 1015.90 1016.33 1016.46 1016.54 1016.30 1016.41 1016.99 1017.43 1017.66 1017.77 1017.86 1017.89 1017.87 1017.90 1017.52 1017.34 1017.11
Thickness
5714 5695 5684 5702 5712 5720 5721 5722 5723 5744 5763 5753 5744 5746 5767 5783 5788 5787 5793 5797 5801 5808 5822 5824 5826 5825 5825 5823 5816 5811 5804 5799 5791 5783 5776 5770 5768 5765 5762 5758 5754 5749 5747 5743
5686 5684 5707 5721 5721 5720 5718 5714 5715 5735 5758 5750 5741 5741 5759 5777 5786 5789 5790 5794 5801 5811 5813 5819 5821 5821 5819 5816 5816 5808 5804 5798 5794 5786 5781 5773 5768 5763 5760 5756 5753 5748 5743 5740
5673 5703 5714 5708 5710 5705 5708 5707 5711 5715 5738 5751 5737 5736 5745 5773 5793 5797 5806 5806 5810 5810 5811 5810 5812 5808 5808 5804 5804 5804 5802 5797 5792 5785 5775 5766 5760 5756 5750 5748 5746 5746 5743 5740
5675 5703 5698 5698 5701 5704 5690 5722 5720 5719 5710 5690 5733 5696 5728 5752 5778 5786 5796 5801 5804 5806 5806 5805 5804 5803 5801 5799 5797 5800 5795 5793 5791 5784 5774 5764 5757 5750 5751 5748 5747 5746 5744 5741
5664 5677 5678 5677 5695 5705 5695 5718 5711 5715 5700 5696 5714 5681 5723 5746 5753 5780 5783 5790 5795 5800 5802 5801 5797 5796 5797 5797 5795 5793 5795 5791 5787 5780 5774 5764 5755 5753 5751 5747 5744 5741 5741 5742
5655 5680 5675 5678 5694 5703 5710 5707 5705 5700 5690 5667 5704 5682 5705 5729 5748 5768 5791 5791 5786 5785 5790 5799 5798 5791 5787 5789 5790 5789 5784 5784 5786 5778 5771 5762 5753 5749 5743 5740 5737 5735 5736 5736
5635 5643 5661 5679 5670 5690 5688 5677 5652 5650 5653 5653 5704 5682 5707 5742 5758 5769 5775 5787 5782 5782 5779 5787 5786 5780 5777 5777 5779 5779 5778 5772 5775 5769 5763 5756 5751 5745 5740 5736 5732 5728 5727 5727
5613 5618 5651 5663 5664 5665 5669 5671 5649 5632 5639 5656 5695 5672 5702 5752 5762 5772 5782 5785 5781 5776 5779 5778 5781 5775 5770 5767 5768 5771 5770 5765 5763 5758 5751 5747 5742 5737 5732 5728 5726 5722 5721 5721
5577 5601 5639 5650 5661 5645 5638 5632 5653 5642 5659 5645 5671 5694 5713 5742 5755 5759 5778 5775 5772 5767 5766 5767 5773 5771 5766 5757 5751 5754 5752 5749 5748 5744 5738 5733 5728 5723 5719 5717 5715 5712 5711 5711
5563 5566 5614 5639 5642 5653 5633 5648 5626 5636 5621 5610 5644 5670 5687 5716 5740 5748 5751 5750 5760 5766 5758 5758 5758 5757 5757 5748 5739 5737 5737 5734 5731 5728 5725 5721 5717 5713 5708 5706 5702 5699 5697 5694
5556 5558 5596 5610 5622 5627 5637 5625 5610 5615 5616 5597 5598 5626 5699 5702 5732 5737 5741 5749 5750 5759 5753 5746 5745 5749 5748 5738 5726 5721 5720 5717 5713 5711 5708 5704 5699 5696 5693 5689 5686 5682 5681 5677
5551 5548 5554 5581 5615 5623 5628 5613 5599 5581 5580 5592 5588 5605 5677 5684 5687 5703 5713 5735 5742 5745 5740 5736 5736 5738 5733 5727 5713 5703 5700 5698 5695 5692 5690 5686 5682 5680 5676 5673 5670 5668 5664 5660
5539 5530 5531 5576 5613 5608 5587 5594 5585 5585 5587 5571 5559 5599 5667 5664 5676 5690 5696 5717 5724 5721 5715 5718 5716 5717 5716 5709 5700 5692 5686 5682 5681 5678 5673 5668 5664 5662 5658 5657 5657 5652 5646 5642
5525 5523 5525 5532 5556 5555 5553 5574 5577 5566 5561 5581 5586 5611 5650 5664 5663 5685 5695 5705 5697 5700 5696 5708 5696 5689 5690 5690 5685 5678 5672 5668 5665 5660 5656 5653 5649 5647 5645 5643 5637 5630 5626 5623
5504 5507 5517 5537 5544 5530 5538 5558 5573 5561 5568 5558 5597 5593 5639 5663 5664 5668 5696 5696 5689 5699 5701 5670 5658 5663 5670 5669 5662 5658 5657 5654 5650 5647 5642 5637 5636 5633 5630 5625 5617 5608 5605 5598
5481 5474 5489 5514 5510 5515 5529 5550 5551 5555 5564 5572 5588 5605 5660 5661 5669 5672 5681 5691 5696 5680 5684 5686 5678 5674 5668 5660 5653 5643 5640 5637 5636 5632 5627 5624 5620 5615 5610 5604 5597 5589 5583 5576
5456 5451 5452 5475 5487 5482 5489 5535 5538 5548 5560 5562 5571 5610 5622 5629 5642 5653 5661 5670 5671 5667 5676 5682 5670 5659 5653 5647 5639 5628 5625 5623 5621 5617 5611 5605 5601 5595 5588 5581 5577 5568 5561 5555
5452 5448 5443 5445 5447 5408 5502 5518 5520 5521 5544 5554 5565 5584 5588 5597 5625 5647 5651 5648 5649 5653 5648 5650 5650 5647 5640 5631 5625 5619 5612 5607 5602 5597 5589 5584 5581 5574 5567 5561 5553 5549 5541 5535
5455 5448 5428 5420 5433 5458 5479 5500 5501 5499 5527 5533 5555 5562 5566 5574 5604 5642 5648 5652 5647 5630 5626 5615 5608 5610 5621 5618 5607 5602 5594 5587 5582 5576 5567 5562 5558 5551 5543 5538 5535 5530 5523 5517
5454 5448 5431 5395 5372 5423 5484 5492 5495 5489 5509 5539 5543 5545 5546 5549 5557 5588 5596 5622 5632 5624 5613 5600 5590 5593 5593 5596 5587 5581 5571 5564 5560 5552 5547 5542 5535 5529 5523 5518 5514 5507 5501 5497
5430 5424 5418 5419 5407 5422 5483 5480 5471 5451 5501 5521 5519 5528 5529 5528 5533 5561 5621 5612 5618 5610 5609 5599 5580 5572 5569 5569 5567 5554 5550 5543 5537 5534 5528 5520 5518 5509 5502 5496 5492 5485 5480 5476
5415 5410 5411 5402 5407 5408 5479 5473 5452 5475 5480 5494 5504 5510 5516 5526 5536 5554 5572 5600 5592 5586 5579 5575 5572 5563 5550 5544 5535 5534 5528 5523 5520 5513 5510 5502 5496 5490 5482 5475 5471 5467 5462 5457
5406 5417 5414 5416 5423 5448 5467 5453 5452 5466 5471 5489 5499 5508 5513 5515 5527 5547 5549 5577 5583 5563 5555 5551 5546 5534 5522 5521 5517 5517 5510 5503 5502 5497 5488 5482 5477 5470 5463 5456 5454 5451 5447 5439
5410 5417 5407 5412 5432 5437 5450 5448 5449 5460 5458 5471 5482 5498 5502 5503 5519 5534 5536 5564 5559 5545 5536 5529 5524 5520 5505 5502 5500 5495 5492 5488 5483 5474 5469 5463 5458 5450 5445 5441 5436 5432 5427 5421
5395 5397 5405 5401 5419 5433 5436 5440 5441 5448 5446 5456 5467 5480 5490 5497 5516 5509 5522 5546 5535 5527 5528 5520 5509 5500 5491 5485 5483 5477 5473 5473 5468 5461 5456 5449 5443 5438 5432 5426 5420 5414 5410 5406
5398 5395 5385 5394 5420 5414 5421 5433 5433 5435 5438 5442 5454 5464 5486 5498 5515 5513 5516 5521 5521 5516 5507 5502 5488 5478 5471 5466 5460 5458 5457 5458 5455 5446 5438 5431 5426 5421 5416 5409 5401 5400 5395 5389